Flag for Sweden Weather past 2 weeks in Borås, Sweden

Now
41 °F

Fog.


Feels Like: 36 °F
Forecast: 40 / 52 °F
Wind: 8 mph from South

Location: Gothenburg / Landvetter

Current Time: Apr 25, 2015 at 3:09:49 AM

Latest Report: Apr 25, 2015 at 2:20 AM


Visibility: 4 mi

Pressure: 29.65 "Hg

Humidity: 93%

Dew point: 39 °F

Location of BoråsLocation

Historic Weather in Borås — Graph

°F

Borås temperature yesterday

Maximum temperature yesterday: 52 °F (at 2:50 PM)
Minimum temperature yesterday: 41 °F (at 4:20 AM)
Average temperature yesterday: 45 °F

Past Weeks' High & Low Weather Summary

 TemperatureHumidityPressure
High64 °F (Apr 20, 3:20 PM)100% (Apr 10, 3:20 AM)30.33 "Hg (Apr 10, 3:20 AM)
Low32 °F (Apr 14, 2:20 AM)18% (Apr 20, 3:20 PM)29.50 "Hg (Apr 15, 4:50 PM)
Average44 °F71%29.98 "Hg
* Reported Apr 10 1:20 AM — Apr 25 1:50 AM, Borås, Weather by CustomWeather, © 2015

Note: Actual official high and low records may vary slightly from our data, if they occured in-between our weather recording intervals... More about our weather records

Advertising

Borås weather history for previous 24 hours

 ConditionsComfort  
Time TempWeatherWind HumidityBarometerVisibility
1:50 AM
Sat, Apr 25
41 °FFog.8 mph93%29.65 "Hg4 mi
1:20 AM41 °FFog.8 mph93%29.68 "Hg5 mi
12:50 AM43 °FClear.8 mph87%29.68 "HgN/A
12:20 AM43 °FPassing clouds.10 mph93%29.68 "HgN/A
11:20 PM
Fri, Apr 24
43 °FOvercast.8 mph93%29.68 "HgN/A
10:50 PM43 °FPartly cloudy.10 mph93%29.71 "HgN/A
10:20 PM43 °FPassing clouds.10 mph93%29.71 "HgN/A
9:50 PM45 °FOvercast.10 mph87%29.71 "HgN/A
9:20 PM45 °FBroken clouds.9 mph87%29.71 "HgN/A
8:50 PM45 °FPartly sunny.8 mph87%29.71 "HgN/A
8:20 PM45 °FMostly cloudy.7 mph87%29.71 "HgN/A
7:50 PM45 °FDrizzle. Partly sunny.7 mph81%29.74 "HgN/A
7:20 PM45 °FDrizzle. Partly sunny.7 mph76%29.74 "HgN/A
6:50 PM46 °FPartly sunny.7 mph71%29.74 "HgN/A
6:20 PM46 °FPartly sunny.9 mph71%29.74 "HgN/A
5:50 PM46 °FPartly sunny.10 mph66%29.74 "HgN/A
5:20 PM46 °FMostly cloudy.12 mph62%29.74 "HgN/A
4:50 PM48 °FBroken clouds.12 mph58%29.74 "HgN/A
4:20 PM48 °FPartly sunny.12 mph58%29.74 "HgN/A
3:50 PM48 °FScattered clouds.15 mph54%29.74 "HgN/A
3:20 PM52 °FPassing clouds.16 mph50%29.74 "HgN/A
2:50 PM52 °FPassing clouds.13 mph50%29.74 "HgN/A
2:20 PM50 °FPartly sunny.13 mph54%29.77 "HgN/A
1:50 PM48 °FScattered clouds.16 mph54%29.74 "HgN/A
1:20 PM50 °FPassing clouds.17 mph54%29.74 "HgN/A
12:50 PM48 °FSunny.14 mph58%29.74 "Hg10 mi
12:20 PM48 °FScattered clouds.15 mph62%29.74 "HgN/A
11:50 AM48 °FPartly sunny.14 mph62%29.77 "HgN/A
11:20 AM46 °FPartly sunny.15 mph66%29.74 "HgN/A
10:50 AM46 °FPartly sunny.13 mph66%29.74 "HgN/A
10:20 AM46 °FOvercast.12 mph66%29.74 "HgN/A
9:50 AM46 °FMostly cloudy.13 mph71%29.74 "HgN/A
9:20 AM45 °FPartly sunny.13 mph76%29.74 "HgN/A
8:50 AM43 °FPartly sunny.12 mph81%29.74 "HgN/A
8:20 AM43 °FPartly sunny.12 mph81%29.74 "HgN/A
7:50 AM43 °FPartly sunny.10 mph81%29.74 "HgN/A
7:20 AM41 °FPartly sunny.8 mph87%29.74 "HgN/A
6:50 AM41 °FPartly sunny.9 mph87%29.74 "HgN/A
6:20 AM41 °FPassing clouds.9 mph87%29.74 "HgN/A
5:50 AM41 °FPassing clouds.10 mph87%29.74 "HgN/A
4:50 AM41 °FMostly cloudy.12 mph87%29.74 "HgN/A
4:20 AM41 °FOvercast.15 mph87%29.74 "HgN/A
3:50 AM43 °FOvercast.13 mph81%29.74 "HgN/A
Weather by CustomWeather, © 2015

See weather overviewHow to use our weather pages